Location: Cherryland
(37.6794°N, 122.1033°W)
Time: 07:01:30
(UTC+00:00)

ATLAS 3B R/B - Pass Details

Date: 14 December 2025
Orbit: 936 x 1258 km, 63.8° (Epoch: 20 January)

Event Time Altitude Azimuth Distance (km) Brightness Sun altitude
Exits shadow 13:41:25 - 338° (NNW) 3,625 5.1 -18.1°
Reaches altitude 10° 13:42:47 10° 343° (NNW) 3,232 4.9 -17.8°
Maximum altitude 13:49:29 30° 42° (NE) 2,039 4.4 -16.5°
Drops below altitude 10° 13:55:53 10° 102° (ESE) 3,088 6.5 -15.3°
Sets 13:58:56 0° 113° (ESE) 3,999 7.6 -14.8°
